{"data":{"norad_id":67356,"epoch":"2026-05-25T00:24:11.481120Z","epoch_age_seconds":70707,"freshness":"FRESH","line1":"1 67356U 26003Y   26145.01679955  .00013756  00000+0  50826-3 0  9993","line2":"2 67356  43.0015 156.3209 0001138 287.6225  72.4502 15.27593092 20491","mean_motion":15.27593092,"eccentricity":0.0001138,"inclination_deg":43.0015,"raan_deg":156.3209,"arg_perigee_deg":287.6225,"mean_anomaly_deg":72.4502,"bstar":0.00050826,"rev_number":2049,"period_min":94.265940815082,"perigee_km":482.22909564525,"apogee_km":483.79069267837,"semimajor_km":6861.1468941618,"source":"CELESTRAK","updated_at":"2026-05-25T13:38:21.526995Z"}}